TimeEDT,TemperatureF,Dew PointF,Humidity,Sea Level PressureIn,VisibilityMPH,Wind Direction,Wind SpeedMPH,Gust SpeedMPH,PrecipitationIn,Events,Conditions,WindDirDegrees,DateUTC
12:15 AM,46.4,44.6,93,29.81,10.0,Calm,Calm,-,N/A,,Scattered Clouds,0,2013-11-02 04:15:00
12:35 AM,44.6,42.8,93,29.81,10.0,Calm,Calm,-,N/A,,Mostly Cloudy,0,2013-11-02 04:35:00
12:55 AM,46.4,44.6,93,29.81,10.0,Calm,Calm,-,N/A,,Mostly Cloudy,0,2013-11-02 04:55:00
1:15 AM,46.4,44.6,93,29.81,10.0,Calm,Calm,-,N/A,,Mostly Cloudy,0,2013-11-02 05:15:00
1:35 AM,44.6,44.6,100,29.81,10.0,Calm,Calm,-,N/A,,Scattered Clouds,0,2013-11-02 05:35:00
1:55 AM,42.8,42.8,100,29.81,10.0,Calm,Calm,-,N/A,,Clear,0,2013-11-02 05:55:00
2:15 AM,42.8,42.8,100,29.81,10.0,Calm,Calm,-,N/A,,Clear,0,2013-11-02 06:15:00
2:35 AM,42.8,42.8,100,29.81,10.0,Calm,Calm,-,N/A,,Clear,0,2013-11-02 06:35:00
2:55 AM,42.8,41.0,93,29.81,10.0,Calm,Calm,-,N/A,,Clear,0,2013-11-02 06:55:00
3:15 AM,42.8,42.8,100,29.81,10.0,Calm,Calm,-,N/A,,Scattered Clouds,0,2013-11-02 07:15:00
3:35 AM,42.8,42.8,100,29.81,10.0,Calm,Calm,-,N/A,,Mostly Cloudy,0,2013-11-02 07:35:00
3:55 AM,44.6,42.8,93,29.81,10.0,Calm,Calm,-,N/A,,Mostly Cloudy,0,2013-11-02 07:55:00
4:15 AM,42.8,42.8,100,29.81,10.0,Calm,Calm,-,N/A,,Scattered Clouds,0,2013-11-02 08:15:00
4:35 AM,42.8,42.8,100,29.81,10.0,Calm,Calm,-,N/A,,Partly Cloudy,0,2013-11-02 08:35:00
4:55 AM,41.0,39.2,93,29.82,10.0,Calm,Calm,-,N/A,,Clear,0,2013-11-02 08:55:00
5:15 AM,41.0,41.0,100,29.82,10.0,Calm,Calm,-,N/A,,Scattered Clouds,0,2013-11-02 09:15:00
5:35 AM,42.8,41.0,93,29.83,10.0,Calm,Calm,-,N/A,,Mostly Cloudy,0,2013-11-02 09:35:00
5:55 AM,42.8,41.0,93,29.83,10.0,Calm,Calm,-,N/A,,Mostly Cloudy,0,2013-11-02 09:55:00
6:15 AM,41.0,39.2,93,29.83,10.0,Calm,Calm,-,N/A,,Scattered Clouds,0,2013-11-02 10:15:00
6:35 AM,41.0,41.0,100,29.84,10.0,Calm,Calm,-,N/A,,Scattered Clouds,0,2013-11-02 10:35:00
6:55 AM,41.0,39.2,93,29.84,10.0,Calm,Calm,-,N/A,,Scattered Clouds,0,2013-11-02 10:55:00
7:15 AM,41.0,41.0,100,29.85,10.0,Calm,Calm,-,N/A,,Mostly Cloudy,0,2013-11-02 11:15:00
7:35 AM,41.0,41.0,100,29.85,10.0,Calm,Calm,-,N/A,,Mostly Cloudy,0,2013-11-02 11:35:00
7:55 AM,39.2,39.2,100,29.85,10.0,Calm,Calm,-,N/A,,Partly Cloudy,0,2013-11-02 11:55:00
8:15 AM,39.2,37.4,93,29.85,10.0,Calm,Calm,-,N/A,,Clear,0,2013-11-02 12:15:00
8:35 AM,41.0,41.0,100,29.86,10.0,Calm,Calm,-,N/A,,Clear,0,2013-11-02 12:35:00
8:55 AM,44.6,42.8,93,29.86,10.0,Calm,Calm,-,N/A,,Clear,0,2013-11-02 12:55:00
9:15 AM,46.4,42.8,87,29.88,10.0,Calm,Calm,-,N/A,,Clear,0,2013-11-02 13:15:00
9:35 AM,46.4,44.6,93,29.88,10.0,Calm,Calm,-,N/A,,Clear,0,2013-11-02 13:35:00
9:55 AM,50.0,44.6,82,29.88,10.0,Calm,Calm,-,N/A,,Partly Cloudy,0,2013-11-02 13:55:00
10:15 AM,51.8,44.6,76,29.87,10.0,South,3.5,-,N/A,,Partly Cloudy,190,2013-11-02 14:15:00
10:35 AM,53.6,42.8,67,29.88,10.0,Variable,6.9,-,N/A,,Scattered Clouds,0,2013-11-02 14:35:00
10:55 AM,53.6,42.8,67,29.88,10.0,WSW,4.6,-,N/A,,Mostly Cloudy,240,2013-11-02 14:55:00
11:15 AM,55.4,41.0,58,29.88,10.0,SW,11.5,-,N/A,,Overcast,230,2013-11-02 15:15:00
11:35 AM,53.6,41.0,62,29.88,10.0,WSW,10.4,-,N/A,,Overcast,240,2013-11-02 15:35:00
11:55 AM,53.6,39.2,58,29.89,10.0,West,4.6,-,N/A,,Overcast,260,2013-11-02 15:55:00
1:15 PM,55.4,37.4,51,29.87,10.0,WNW,6.9,-,N/A,,Scattered Clouds,300,2013-11-02 17:15:00
1:35 PM,57.2,37.4,48,29.86,10.0,WSW,5.8,-,N/A,,Partly Cloudy,250,2013-11-02 17:35:00
1:55 PM,55.4,33.8,44,29.86,10.0,WNW,10.4,-,N/A,,Partly Cloudy,290,2013-11-02 17:55:00
2:15 PM,57.2,33.8,41,29.86,10.0,NW,9.2,-,N/A,,Mostly Cloudy,310,2013-11-02 18:15:00
2:35 PM,55.4,35.6,47,29.86,10.0,NW,9.2,-,N/A,,Mostly Cloudy,310,2013-11-02 18:35:00
2:55 PM,57.2,35.6,44,29.85,10.0,West,13.8,-,N/A,,Partly Cloudy,270,2013-11-02 18:55:00
3:15 PM,55.4,33.8,44,29.85,10.0,Variable,4.6,-,N/A,,Partly Cloudy,0,2013-11-02 19:15:00
3:35 PM,57.2,33.8,41,29.85,10.0,WSW,13.8,-,N/A,,Clear,250,2013-11-02 19:35:00
3:55 PM,59.0,32.0,36,29.85,10.0,WNW,12.7,-,N/A,,Scattered Clouds,300,2013-11-02 19:55:00
4:15 PM,55.4,30.2,38,29.86,10.0,Variable,6.9,-,N/A,,Scattered Clouds,0,2013-11-02 20:15:00
4:35 PM,55.4,32.0,41,29.86,10.0,Variable,6.9,-,N/A,,Mostly Cloudy,0,2013-11-02 20:35:00
4:55 PM,57.2,30.2,36,29.87,10.0,West,11.5,-,N/A,,Mostly Cloudy,260,2013-11-02 20:55:00
5:15 PM,55.4,33.8,44,29.87,10.0,West,8.1,-,N/A,,Mostly Cloudy,270,2013-11-02 21:15:00
5:35 PM,55.4,32.0,41,29.88,10.0,Variable,6.9,-,N/A,,Mostly Cloudy,0,2013-11-02 21:35:00
5:55 PM,50.0,35.6,58,29.90,8.0,North,9.2,-,N/A,Rain,Light Rain,10,2013-11-02 21:55:00
6:15 PM,48.2,35.6,62,29.91,10.0,Calm,Calm,-,N/A,,Scattered Clouds,0,2013-11-02 22:15:00
6:35 PM,44.6,39.2,81,29.92,10.0,Calm,Calm,-,N/A,,Partly Cloudy,0,2013-11-02 22:35:00
6:55 PM,42.8,39.2,87,29.93,10.0,Calm,Calm,-,N/A,,Clear,0,2013-11-02 22:55:00
7:15 PM,41.0,37.4,87,29.94,10.0,NNW,3.5,-,N/A,,Clear,340,2013-11-02 23:15:00
7:35 PM,41.0,37.4,87,29.95,10.0,Calm,Calm,-,N/A,,Clear,0,2013-11-02 23:35:00
7:55 PM,41.0,37.4,87,29.96,10.0,Calm,Calm,-,N/A,,Mostly Cloudy,0,2013-11-02 23:55:00
8:15 PM,41.0,37.4,87,29.97,10.0,Calm,Calm,-,N/A,,Mostly Cloudy,0,2013-11-03 00:15:00
8:35 PM,42.8,37.4,81,29.98,10.0,Calm,Calm,-,N/A,,Mostly Cloudy,0,2013-11-03 00:35:00
8:55 PM,42.8,37.4,81,29.98,10.0,Calm,Calm,-,N/A,,Mostly Cloudy,0,2013-11-03 00:55:00
9:15 PM,39.2,37.4,93,30.00,10.0,Calm,Calm,-,N/A,,Partly Cloudy,0,2013-11-03 01:15:00
9:35 PM,39.2,37.4,93,30.01,10.0,Calm,Calm,-,N/A,,Scattered Clouds,0,2013-11-03 01:35:00
9:55 PM,39.2,35.6,87,30.01,10.0,Calm,Calm,-,N/A,,Scattered Clouds,0,2013-11-03 01:55:00
10:15 PM,39.2,35.6,87,30.02,10.0,Calm,Calm,-,N/A,,Mostly Cloudy,0,2013-11-03 02:15:00
10:35 PM,41.0,37.4,87,30.03,10.0,Calm,Calm,-,N/A,,Overcast,0,2013-11-03 02:35:00
10:55 PM,41.0,37.4,87,30.04,10.0,Calm,Calm,-,N/A,,Overcast,0,2013-11-03 02:55:00
11:15 PM,39.2,37.4,93,30.05,10.0,Calm,Calm,-,N/A,,Mostly Cloudy,0,2013-11-03 03:15:00
11:35 PM,39.2,37.4,93,30.06,10.0,Calm,Calm,-,N/A,,Partly Cloudy,0,2013-11-03 03:35:00
11:55 PM,39.2,35.6,87,30.06,10.0,NW,3.5,-,N/A,,Mostly Cloudy,310,2013-11-03 03:55:00